PLEIADES YEARLING

导读 | 星芒AI

PLEIADES YEARLING 是由法国国家空间研究中心(CNES)与空客防务与航天公司合作开发的高分辨率地球观测卫星。该卫星属于 Pleiades 高分辨率光学卫星星座的一部分,主要用于提供亚米级分辨率的影像,支持军事侦察、环境监测、灾害评估等应用。PLEIADES YEARLING 具备高敏捷性和快速重访能力,可实现对全球重点区域的高效观测。其先进成像系统和数据处理能力,使其在民用和军用领域均具有重要价值。

基本信息
目录编号:
56207
目录名称:
PLEIADES YEARLING
国际标识:
2023-054AF
轨道中心:
EARTH
卫星名称:
PLEIADES YEARLING
卫星全名:
--
卫星状态:
已陨落 最后检测时间 2024-08-12
发射日期:
2023-04-15 UTC
国别 :
美国 (US)
星等 :
--
轨道信息
数据来源 国际轨道数据
星历时间: 2024-08-11T16:27:33+0800
轨道信息已过期443天
半长轴: 6582.888km
偏心率: 0.0009655
轨道倾角: 97.335°
近地点辐角 199.438°
升交点赤经 130.384°
平近点角 160.655°
近地点: 198.397km
远地点: 211.109km
周期: 88.590分钟
每日圈数: 16.25467
详细信息
使用方式:
暂无